Location: Boncourt
(49.6160°N, 3.9448°E)
Time: 05:39:33
(UTC+00:00)

CZ-4B R/B - Pass Details

Date: 09 February 2023
Orbit: 808 x 881 km, 99.0° (Epoch: 30 March)

Event Time Altitude Azimuth Distance (km) Brightness Sun altitude
Rises 18:08:56 0° 151° (SSE) 3,354 6.1 -12.7°
Reaches altitude 10° 18:11:16 10° 148° (SSE) 2,434 5.4 -13.1°
Maximum altitude 18:16:35 62° 69° (ENE) 946 3.2 -14.0°
Drops below altitude 10° 18:22:02 10° 350° (N) 2,499 5.7 -14.8°
Sets 18:24:28 0° 347° (NNW) 3,450 6.5 -15.2°
